Regional Weather Roundup
Issued by NWS

Home | Current Version | Previous Version | Graphics & Text | Print | Product List | Glossary On
Versions: 1 2 3 4 5 6 7 8 9 10 11 12 13 14 15 16 17 18 19 20 21 22 23 24 25 26 27 28 29 30 31 32 33 34 35 36 37 38 39 40 41 42 43 44 45 46 47 48 49 50
000
ASUS45 KABQ 271101
RWRNM
NEW MEXICO REGIONAL WEATHER ROUNDUP
NATIONAL WEATHER SERVICE ALBUQUERQUE NM
500 AM MDT TUE JUN 27 2017

NOTE: "FAIR" MEANS FEW OR NO CLOUDS BELOW 12,000 FEET AGL WITH NO
       SIGNIFICANT WEATHER OR OBSTRUCTIONS TO VISION.

      THIS PRODUCT IS RELEASED AS TWO VERSIONS.  ONE VERSION NEAR
      THE TOP OF THE HOUR CONTAINING PRELIMINARY DATA FROM ALBUQUERQUE
      AND OTHER STATIONS.  A FINAL VERSION WITH ADDITIONAL DATA IS
      ISSUED ABOUT 10 MINUTES AFTER THE HOUR.

NMZ501-503-504-510>518-271200-
NORTHWEST PLATEAU/NORTHCENTRAL MOUNTAINS

CITY           SKY/WX    TMP DP  RH WIND       PRES   REMARKS
FARMINGTON     FAIR      67  42  40 E12       30.11R
LOS ALAMOS     FAIR      58  43  56 S8        30.30R
SANTA FE       FAIR      53  47  79 CALM      30.24F
TAOS           FAIR      52  32  46 NE6       30.32S
ANGEL FIRE     FAIR      37  36  95 CALM      30.40S

$$
NMZ402-403-502-505>509-271200-
WESTCENTRAL MOUNTAINS/SOUTHWEST MOUNTAINS

CITY           SKY/WX    TMP DP  RH WIND       PRES   REMARKS
GALLUP         FAIR      61  41  47 CALM      30.22R
GRANTS         FAIR      58  45  63 S8        30.24F
SILVER CITY    FAIR      59  52  77 N8        30.21R

$$
NMZ407-409-411-412-271200-
SOUTHERN DESERTS

CITY           SKY/WX    TMP DP  RH WIND       PRES   REMARKS
DEMING         FAIR      68  51  54 E9        30.13R
LAS CRUCES     FAIR      70  55  58 SE7       30.16S
HOLLOMAN AFB   FAIR      65  51  59 E3        30.16R
ALAMOGORDO     FAIR      64  50  59 CALM      30.16R
T OR C         FAIR      65  52  62 W8        30.15F

$$
NMZ519>523-271200-
CENTRAL VALLEYS/CENTRAL HIGHLANDS

CITY           SKY/WX    TMP DP  RH WIND       PRES   REMARKS
ALBUQUERQUE    LGT RAIN  65  53  65 SE7       30.19S
DOUBLE EAGLE   MOCLDY    61  49  63 N7        30.25R
MORIARTY ARPT  FAIR      50  49  98 CALM      30.27R
CLINES CORNERS NOT AVBL
BELEN          NOT AVBL
SOCORRO        FAIR      64  48  56 W9        30.17R

$$
NMZ524>526-539-540-271200-
SOUTHCENTRAL MOUNTAINS

CITY           SKY/WX    TMP DP  RH WIND       PRES   REMARKS
RUIDOSO        FAIR      55  46  71 CALM      30.34R

$$
NMZ527>531-271200-
NORTHEAST HIGHLANDS/NORTHEAST PLAINS

CITY           SKY/WX    TMP DP  RH WIND       PRES   REMARKS
LAS VEGAS      FAIR      49  44  83 N3        30.29R
RATON          FAIR      51  49  92 NE5       30.23F
CLAYTON        FAIR      60  56  86 SW12      30.12F

$$
NMZ532>537-271200-
EASTCENTRAL PLAINS

CITY           SKY/WX    TMP DP  RH WIND       PRES   REMARKS
SANTA ROSA     FAIR      56  50  78 S5        30.16F
TUCUMCARI      FAIR      65  54  67 SW10      30.08F
CANNON AFB     FAIR      64  64 100 S6        30.16R
CLOVIS AIRPORT NOT AVBL

$$
NMZ028-029-538-271200-
SOUTHEAST PLAINS

CITY           SKY/WX    TMP DP  RH WIND       PRES   REMARKS
ROSWELL        FAIR      63  58  83 CALM      30.13S
ARTESIA        FAIR      64  64 100 CALM      30.13S
CARLSBAD       FAIR      67  66  97 NE8       30.10F
HOBBS          FAIR      64  64 100 CALM      30.15S


$$




USA.gov is the U.S. government's official web portal to all federal, state and local government web resources and services.